STARLINK-2621

operational
NORAD ID: 48370 Int'l Des: 2021-038 Owner: SPXS Country: US Constellation: starlink
LEOCIRCULARSTARLINK_TYPE

About STARLINK-2621

Description loading...

Live Position

Loading 3D Globe...

Upcoming Passes

Altitude History

Altitude vs Time

uPlot chart will show altitude changes over time

Two-Line Element Set

1 48370U 21038T 25251.24498334 .00000247 00000-0 35475-4 0 9999
2 48370 53.0548 90.6475 0001244 89.2727 270.8405 15.06389071239668
Epoch: Sep 8, 2025 • Age: 10 hours

Current Status

Altitude 548.5 km
Velocity 7.59 km/s
Sub-Earth Point -2.33°S, 132.14°W
Launch Date May 4, 2021
Age 4.3 years
Type internet

Technical Details

Classification Payload
Mass 260.00 kg
Dry Mass 248.00 kg
Total Mass 260.00 kg
Length 0.20 m
Diameter 2.80 m
Span 9.00 m
Shape Box + pan
Manufacturer SPXS
Bus Type Starlink
Phase Status In Orbit
Owner/State SPXS/US

Large Constellations

Loading constellations...